Terminal Aerodrome Forecast
Issued by NWS Quad Cities IA IL

Home | Current Version | Previous Version | Text Only | Print | Product List | Glossary On
Versions: 1 2 3 4 5 6 7 8 9 10 11 12 13 14 15 16 17 18 19 20 21 22 23 24 25 26 27 28 29
000
FTUS43 KDVN 211100
TAFDBQ
TAF
KDBQ 211130Z 2112/2212 16012KT 3SM BR OVC006
      TEMPO 2112/2115 1SM -DZ BR OVC002
     FM211800 17013KT P6SM OVC010
     FM212200 18013KT 5SM BR OVC008
     FM220600 15012KT 3SM -DZ BR OVC004=

USA.gov is the U.S. government's official web portal to all federal, state and local government web resources and services.